[[{"header":{"parameterUnit":"m.s-1","parameterCategory":1,"la1":30.2991,"la2":30.254,"lo1":-89.0895,"lo2":-89.0444,"dy":0.0017,"dx":0.0017,"nx":28,"ny":28,"refTime":"2024-11-29T09:00:00:Z","depth":0,"parameterNumber":2,"parameterNumberName":"U-component_of_WINDS"},"data":[0,0,0,0,0,0,0,0,0,0,0,0,0,0,0,0,0,0,0,0,0,0,0,0,0,0,0,0,0,0,0,0,0,0,0,0,0,0,0,0,0,0,0,0,0,0,0,0,0,0,0,0,0,0,0,0,0,0,-3.9832,-3.9833,0,-3.9936,-3.9937,-3.9939,-3.9811,-3.9807,-3.9802,-3.9798,-3.9907,-3.9914,-3.9921,0,0,0,0,0,0,0,0,0,0,0,0,0,-3.9524,-3.9531,-3.9832,-3.9833,-3.9835,-3.9936,-3.9938,-3.9939,-3.9812,-3.9807,-3.9801,-3.9795,-3.9904,-3.9913,-3.9922,0,0,0,0,0,0,0,0,0,0,0,0,0,-3.9646,-3.9533,-3.9832,-3.9784,-3.978,-3.9936,-3.9938,-3.9939,-3.9813,-3.9806,-3.9799,-3.9793,-3.9901,-3.9912,-3.9923,-4.0131,0,0,-3.9956,-3.9961,0,0,0,0,0,0,0,0,-3.964,-3.9658,-3.9789,-3.9787,-3.9784,-3.9854,-3.9869,-4.0004,-3.9815,-3.9801,-3.9797,-3.9789,-3.9895,-3.9906,-3.9941,-4.0137,-4.0141,-3.9957,-3.9964,-3.9969,-3.9972,0,0,0,0,0,0,0,-3.9631,-3.9653,-3.9873,-3.9791,-3.9788,-3.9757,-3.9767,-3.9894,-3.9886,-3.9802,-3.9793,-3.9807,-3.9892,-3.9931,-3.9943,-4.0143,-3.9957,-3.9967,-3.9973,-3.9978,-4.0515,-4.0522,0,0,0,0,0,0,-3.9628,-3.9646,-3.987,-3.9876,-3.9693,-3.9768,-3.9779,-3.9838,-3.9885,-3.9885,-3.9813,-3.98,-3.9916,-3.993,-3.9946,-4.0194,-3.9968,-3.9979,-3.9985,-4.0507,-4.0516,-4.0525,0,0,0,0,0,0,-3.9622,-3.9649,-3.9866,-3.9759,-3.9784,-3.9781,-3.9849,-3.9844,-3.9883,-3.9893,-3.9891,-3.9854,-3.9911,-3.9931,-4.0086,-4.0196,-3.9984,-3.9994,-4.0498,-4.051,-4.052,-4.0692,0,0,0,0,0,0,-3.9614,-3.9648,-3.9727,-3.9762,-3.979,-4.0005,-3.9856,-3.9851,-3.9902,-3.9887,-3.9931,-3.9931,-3.9907,-4.0071,-4.0097,-4.0207,-4.0002,-4.0488,-4.0503,-4.0517,-4.0676,-4.0708,-4.0735,0,0,0,0,0,-3.9603,-3.9772,-3.9732,-3.976,-3.9889,-4.0011,-4.0028,-3.9995,-3.9911,-3.9991,-3.9997,-3.993,-4.0179,-4.0088,-4.0116,-4.0232,-4.0481,-4.0499,-4.0516,-4.0663,-4.0702,-4.0734,0,0,0,0,0,0,-3.9752,-3.9776,-3.9732,-3.9916,-3.9963,-3.9989,-4.0089,-4.0037,-4.0109,-4.0092,-4.0048,-4.006,-4.0226,-4.0243,-4.0141,-4.0436,-4.0316,-4.034,-4.0419,-4.0455,-4.0484,-4.0477,-4.0011,0,0,0,0,0,-3.9806,-3.9902,-3.9918,-4.0079,-4.0104,-4.0093,-4.0145,-4.0116,-4.0162,-4.0182,-4.0199,-4.0247,-4.0336,-4.0396,-4.0478,-4.0677,-4.0685,-4.077,-4.0799,-4.0823,-4.0845,-4.0952,-4.099,-4.0582,-4.0581,-4.0581,0,0,-3.9919,-3.9943,-4.0007,-4.011,-4.0142,-4.0244,-4.0111,-4.0224,-4.0299,-4.0199,-4.0347,-4.0361,-4.0412,-4.0591,-4.067,-4.0611,-4.0959,-4.0845,-4.0864,-4.0874,-4.0974,-4.1013,-4.1047,-4.0593,-4.0591,-4.0589,0,0,-4.0177,-4.0205,-4.0343,-4.0378,-4.0428,-4.0419,-4.0452,-4.0487,-4.0492,-4.064,-4.0567,-4.0655,-4.0809,-4.0849,-4.0889,-4.116,-4.1102,-4.1188,-4.1342,-4.1446,-4.1479,-4.1507,-4.1605,-4.1641,-4.1209,-4.121,-4.121,0,-4.0312,-4.0461,-4.042,-4.0539,-4.0586,-4.0498,-4.0638,-4.0674,-4.0749,-4.0784,-4.0716,-4.0907,-4.0935,-4.1121,-4.1187,-4.1222,-4.126,-4.1184,-4.1477,-4.1505,-4.1531,-4.1624,-4.1661,-4.122,-4.1219,-4.1218,-4.1217,0,-4.0625,-4.073,-4.0835,-4.0909,-4.0968,-4.1096,-4.1075,-4.1139,-4.1104,-4.1103,-4.1254,-4.1284,-4.1371,-4.1412,-4.138,-4.1595,-4.1556,-4.1483,-4.1363,-4.1581,-4.1668,-4.1703,-4.1235,-4.1231,-4.1228,-4.1226,0,0,-4.0983,-4.1031,-4.1071,-4.1103,-4.1151,-4.1232,-4.1355,-4.144,-4.1496,-4.155,-4.1654,-4.1785,-4.1718,-4.1764,-4.1734,-4.1825,-4.204,-4.1741,-4.1741,-4.1797,-4.228,-4.2337,-4.2379,-4.2,-4.2006,-4.2012,-4.2276,0,-4.1243,-4.1458,-4.1424,-4.1632,-4.1728,-4.1645,-4.1753,-4.1795,-4.1796,-4.1878,-4.1879,-4.1973,-4.1876,-4.1903,-4.199,-4.1996,-4.2137,-4.1976,-4.2098,-4.2102,-4.209,-4.2424,-4.2484,-4.2733,-4.231,-4.2316,-4.232,0,-4.1576,-4.1642,-4.1859,-4.1892,-4.1931,-4.2029,-4.2103,-4.2182,-4.2227,-4.2221,-4.2272,-4.2225,-4.2349,-4.2224,-4.2395,-4.2286,-4.2333,-4.2343,-4.2352,-4.2365,-4.2227,-4.2448,-4.2811,-4.2849,-4.2373,-4.2368,-4.2364,0,-4.1818,-4.196,-4.2109,-4.2139,-4.218,-4.2251,-4.2271,-4.2309,-4.2361,-4.2426,-4.2459,-4.2538,-4.2582,-4.2643,-4.2619,-4.253,-4.2795,-4.2668,-4.2795,-4.2796,-4.2858,-4.2855,-4.3236,-4.2884,-4.2883,-4.2883,-4.2882,0,-4.2114,-4.2251,-4.2218,-4.231,-4.246,-4.2419,-4.257,-4.258,-4.2614,-4.2706,-4.2638,-4.2727,-4.2688,-4.2774,-4.2755,-4.29,-4.292,-4.2919,-4.2913,-4.2927,-4.2928,-4.296,-4.2943,-4.2893,-4.289,-4.2888,-4.2887,0,-4.2411,-4.2394,-4.2551,-4.2576,-4.2585,-4.2696,-4.2717,-4.2803,-4.2798,-4.2916,-4.2941,-4.2933,-4.3031,-4.3011,-4.3119,-4.3106,-4.3288,-4.326,-4.3274,-4.3268,-4.3397,-4.3386,-4.3815,-4.3869,-4.348,-4.3483,-4.3487,0,-4.2602,-4.2706,-4.2741,-4.2798,-4.2824,-4.2916,-4.2969,-4.2931,-4.2989,-4.3047,-4.3127,-4.3217,-4.3289,-4.3448,-4.3452,-4.3534,-4.3508,-4.3652,-4.352,-4.3531,-4.3513,-4.3508,-4.3519,-4.368,-4.3684,-4.3688,-4.3691,0,-4.2944,-4.293,-4.3009,-4.3085,-4.315,-4.3208,-4.326,-4.331,-4.3277,-4.3346,-4.3444,-4.3499,-4.3607,-4.3699,-4.3774,-4.3795,-4.3739,-4.3732,-4.3766,-4.3783,-4.3787,-4.3789,-4.3348,-4.3723,-4.372,-4.3718,-4.3716,-4.3714,-4.3196,-4.3284,-4.3323,-4.3412,-4.3447,-4.3496,-4.3578,-4.3583,-4.3664,-4.3749,-4.3721,-4.3834,-4.3875,-4.397,-4.4,-4.4087,-4.4033,-4.4082,-4.4095,-4.4108,-4.4125,-4.3771,-4.41,-4.4099,-4.4098,-4.4097,-4.4097,0,-4.3536,-4.3556,-4.3639,-4.3713,-4.3784,-4.3721,-4.3775,-4.3839,-4.3938,-4.3981,-4.4051,-4.4164,-4.4252,-4.4262,-4.4346,-4.4414,-4.439,-4.4437,-4.4433,-4.4439,-4.4167,-4.4131,-4.4455,-4.4455,-4.4455,-4.4455,-4.4455,-4.4455,-4.3722,-4.3867,-4.3858,-4.402,-4.4039,-4.4148,-4.4184,-4.4229,-4.4263,-4.4392,-4.4464,-4.447,-4.45,-4.4584,-4.4662,-4.4662,-4.4697,-4.4755,-4.4747,-4.4494,-4.4458,-4.4424,-4.4389,-4.4763,-4.4763,-4.5011,-4.5013,-4.5015]},{"header":{"parameterUnit":"m.s-1","parameterCategory":1,"la1":30.2991,"la2":30.254,"lo1":-89.0895,"lo2":-89.0444,"dy":0.0017,"dx":0.0017,"nx":28,"ny":28,"refTime":"2024-11-29T09:00:00:Z","depth":0,"parameterNumber":3,"parameterNumberName":"V-component_of_WINDS"},"data":[0,0,0,0,0,0,0,0,0,0,0,0,0,0,0,0,0,0,0,0,0,0,0,0,0,0,0,0,0,0,0,0,0,0,0,0,0,0,0,0,0,0,0,0,0,0,0,0,0,0,0,0,0,0,0,0,0,0,-6.2449,-6.245,0,-6.2535,-6.2536,-6.2537,-6.2448,-6.2445,-6.2442,-6.2438,-6.2522,-6.2527,-6.2532,0,0,0,0,0,0,0,0,0,0,0,0,0,-6.2201,-6.2206,-6.2449,-6.245,-6.2451,-6.2535,-6.2536,-6.2538,-6.2449,-6.2445,-6.2441,-6.2437,-6.252,-6.2526,-6.2533,0,0,0,0,0,0,0,0,0,0,0,0,0,-6.23,-6.2207,-6.2449,-6.2417,-6.2415,-6.2535,-6.2536,-6.2538,-6.245,-6.2445,-6.244,-6.2435,-6.2518,-6.2526,-6.2534,-6.2687,0,0,-6.2559,-6.2562,0,0,0,0,0,0,0,0,-6.2294,-6.2309,-6.2421,-6.242,-6.2418,-6.2476,-6.2479,-6.2588,-6.2451,-6.2437,-6.2438,-6.2432,-6.251,-6.2519,-6.2546,-6.2691,-6.2695,-6.2559,-6.2564,-6.2568,-6.257,0,0,0,0,0,0,0,-6.2288,-6.2305,-6.2483,-6.2423,-6.2421,-6.2397,-6.2405,-6.25,-6.2501,-6.2438,-6.2431,-6.2443,-6.2508,-6.2539,-6.2547,-6.2696,-6.2559,-6.2566,-6.2571,-6.2575,-6.2968,-6.2973,0,0,0,0,0,0,-6.2285,-6.23,-6.248,-6.2486,-6.2342,-6.2405,-6.2415,-6.2462,-6.25,-6.2501,-6.2447,-6.2439,-6.2527,-6.2538,-6.255,-6.273,-6.2568,-6.2575,-6.258,-6.2963,-6.2969,-6.2975,0,0,0,0,0,0,-6.228,-6.2302,-6.2477,-6.2391,-6.2411,-6.2415,-6.2469,-6.2467,-6.2497,-6.2508,-6.2507,-6.2478,-6.2524,-6.2539,-6.2654,-6.2732,-6.2579,-6.2587,-6.2956,-6.2965,-6.2972,-6.3094,0,0,0,0,0,0,-6.2273,-6.2301,-6.2361,-6.2393,-6.2416,-6.2581,-6.2474,-6.2472,-6.2512,-6.2501,-6.2536,-6.2537,-6.2521,-6.2642,-6.2662,-6.2741,-6.2593,-6.2949,-6.296,-6.297,-6.3083,-6.3105,-6.3125,0,0,0,0,0,-6.2265,-6.2391,-6.2365,-6.2387,-6.2492,-6.2586,-6.2599,-6.2579,-6.2519,-6.2578,-6.2584,-6.2536,-6.2721,-6.2654,-6.2676,-6.2759,-6.2944,-6.2957,-6.2969,-6.3073,-6.3101,-6.3124,0,0,0,0,0,0,-6.2367,-6.2395,-6.2366,-6.2507,-6.2545,-6.2571,-6.2645,-6.2609,-6.2664,-6.2652,-6.2623,-6.2631,-6.2753,-6.2767,-6.2693,-6.2907,-6.2822,-6.2839,-6.2894,-6.292,-6.2941,-6.2934,-6.26,0,0,0,0,0,-6.2406,-6.2483,-6.2502,-6.2624,-6.2645,-6.2642,-6.2682,-6.2664,-6.2701,-6.2716,-6.2731,-6.2768,-6.2833,-6.2878,-6.2939,-6.3084,-6.3089,-6.3151,-6.3172,-6.3189,-6.3205,-6.328,-6.3307,-6.3017,-6.3016,-6.3016,0,0,-6.2488,-6.2512,-6.2562,-6.2645,-6.2673,-6.275,-6.2656,-6.2742,-6.2798,-6.2729,-6.2838,-6.285,-6.2889,-6.3019,-6.3077,-6.3035,-6.3286,-6.3205,-6.3219,-6.3225,-6.3295,-6.3323,-6.3347,-6.3025,-6.3023,-6.3022,0,0,-6.2675,-6.2703,-6.2807,-6.2836,-6.2879,-6.2875,-6.29,-6.2932,-6.2938,-6.3047,-6.2996,-6.3061,-6.3176,-6.3205,-6.3235,-6.3431,-6.3388,-6.3452,-6.3561,-6.3634,-6.3657,-6.3677,-6.3745,-6.377,-6.3467,-6.3467,-6.3468,0,-6.277,-6.2887,-6.2864,-6.2954,-6.2991,-6.2932,-6.3036,-6.3064,-6.3125,-6.315,-6.3102,-6.3244,-6.3266,-6.3401,-6.3449,-6.3476,-6.3501,-6.3448,-6.3656,-6.3676,-6.3694,-6.3759,-6.3785,-6.3475,-6.3474,-6.3473,-6.3472,0,-6.3,-6.3081,-6.316,-6.3221,-6.3266,-6.3362,-6.3352,-6.3401,-6.3377,-6.3379,-6.3489,-6.3514,-6.3578,-6.3609,-6.3587,-6.374,-6.3712,-6.3661,-6.3574,-6.373,-6.379,-6.3815,-6.3485,-6.3483,-6.348,-6.3479,0,0,-6.3256,-6.3302,-6.3331,-6.3357,-6.3399,-6.346,-6.3551,-6.3616,-6.3657,-6.37,-6.3774,-6.3872,-6.3824,-6.3858,-6.3838,-6.3903,-6.4055,-6.3843,-6.3844,-6.388,-6.4222,-6.426,-6.429,-6.4026,-6.4031,-6.4035,-6.4219,0,-6.3443,-6.3605,-6.3586,-6.374,-6.3812,-6.3757,-6.3836,-6.387,-6.3873,-6.3933,-6.3935,-6.4005,-6.3937,-6.3957,-6.4019,-6.4023,-6.4123,-6.401,-6.4093,-6.4097,-6.4085,-6.4321,-6.4362,-6.4534,-6.4242,-6.4246,-6.4249,0,-6.3683,-6.3736,-6.3897,-6.3926,-6.3955,-6.4028,-6.4084,-6.4143,-6.4178,-6.4175,-6.4213,-6.4181,-6.427,-6.4183,-6.4304,-6.4228,-6.426,-6.4268,-6.4274,-6.428,-6.4182,-6.4332,-6.4589,-6.4615,-6.4286,-6.4283,-6.4281,0,-6.3851,-6.3962,-6.4072,-6.4096,-6.4133,-6.4184,-6.4202,-6.4232,-6.4271,-6.4319,-6.4343,-6.4401,-6.4432,-6.4477,-6.446,-6.4398,-6.4584,-6.4495,-6.4582,-6.4583,-6.4623,-6.4621,-6.4888,-6.4647,-6.4647,-6.4646,-6.4646,0,-6.4062,-6.4162,-6.4148,-6.4215,-6.4325,-6.4301,-6.441,-6.442,-6.4447,-6.4513,-6.4469,-6.4532,-6.4507,-6.4567,-6.4555,-6.4656,-6.4671,-6.4669,-6.4664,-6.4673,-6.4673,-6.4693,-6.468,-6.4653,-6.4651,-6.465,-6.4649,0,-6.4268,-6.4263,-6.4379,-6.4404,-6.4412,-6.4492,-6.4512,-6.4574,-6.4573,-6.4658,-6.4676,-6.4674,-6.4743,-6.4732,-6.4808,-6.4799,-6.4925,-6.4906,-6.4914,-6.4909,-6.4996,-6.4988,-6.5285,-6.5321,-6.5058,-6.5061,-6.5063,0,-6.4402,-6.4478,-6.4511,-6.4554,-6.4575,-6.4644,-6.4683,-6.4662,-6.4704,-6.4749,-6.4805,-6.487,-6.4921,-6.5034,-6.5037,-6.5095,-6.5076,-6.5176,-6.5084,-6.5089,-6.5075,-6.5071,-6.5077,-6.5194,-6.5197,-6.5199,-6.5201,0,-6.464,-6.4634,-6.4693,-6.4752,-6.4801,-6.4846,-6.4885,-6.4922,-6.4904,-6.4953,-6.5024,-6.5064,-6.5141,-6.5206,-6.5259,-6.5273,-6.5234,-6.523,-6.5253,-6.5262,-6.5263,-6.5262,-6.4962,-6.5223,-6.5221,-6.522,-6.5218,-6.5218,-6.4814,-6.4878,-6.4911,-6.4978,-6.5006,-6.5044,-6.5103,-6.511,-6.5169,-6.5231,-6.5214,-6.5294,-6.5324,-6.5391,-6.5412,-6.5473,-6.5435,-6.5469,-6.5477,-6.5485,-6.5495,-6.5254,-6.5482,-6.5482,-6.5481,-6.548,-6.548,0,-6.5048,-6.5066,-6.5129,-6.5186,-6.5239,-6.5198,-6.524,-6.5285,-6.5357,-6.5389,-6.544,-6.552,-6.5581,-6.559,-6.5648,-6.5694,-6.5677,-6.571,-6.5706,-6.5709,-6.5526,-6.55,-6.5722,-6.5722,-6.5722,-6.5722,-6.5722,-6.5722,-6.5176,-6.5282,-6.5279,-6.5397,-6.5413,-6.5492,-6.5519,-6.5553,-6.5578,-6.567,-6.5722,-6.5727,-6.5749,-6.5808,-6.5862,-6.5862,-6.5885,-6.5924,-6.5918,-6.5747,-6.5722,-6.5699,-6.5674,-6.593,-6.593,-6.6095,-6.6097,-6.6098]}]]